Time,TemperatureF,DewpointF,PressureIn,WindDirection,WindDirectionDegrees,WindSpeedMPH,WindSpeedGustMPH,Humidity,HourlyPrecipIn,Conditions,Clouds,dailyrainin,SolarRadiationWatts/m^2,SoftwareType,DateUTC
2016-08-31 00:34:00,61.0,28.0,-100.00,SE,132,6.0,12.0,29,-99.99,,,-99.99,0.000000,,2016-08-31 07:34:00,
2016-08-31 01:33:00,62.0,29.0,-100.00,SE,141,8.0,13.0,28,-99.99,,,-99.99,0.000000,,2016-08-31 08:33:00,
2016-08-31 01:40:00,62.0,28.0,-100.00,SE,135,5.0,11.0,28,-99.99,,,-99.99,0.000000,,2016-08-31 08:40:00,
2016-08-31 02:33:00,62.0,28.0,-100.00,SE,135,5.0,11.0,28,-99.99,,,-99.99,0.000000,,2016-08-31 09:33:00,
2016-08-31 03:26:00,61.0,29.0,-100.00,SE,146,6.0,11.0,29,-99.99,,,-99.99,0.000000,,2016-08-31 10:26:00,
2016-08-31 04:34:00,61.0,26.0,-100.00,SE,143,4.0,8.0,26,-99.99,,,-99.99,0.000000,,2016-08-31 11:34:00,
2016-08-31 04:40:00,61.0,27.0,-100.00,SSE,168,5.0,10.0,27,-99.99,,,-99.99,0.000000,,2016-08-31 11:40:00,
2016-08-31 05:34:00,61.0,27.0,-100.00,SSE,168,5.0,10.0,27,-99.99,,,-99.99,,,2016-08-31 12:34:00,
2016-08-31 06:35:00,60.0,28.0,-100.00,SSE,150,4.0,9.0,29,-99.99,,,-99.99,0.000000,,2016-08-31 13:35:00,
2016-08-31 06:40:00,60.0,28.0,-100.00,SE,137,5.0,10.0,29,-99.99,,,-99.99,2.000000,,2016-08-31 13:40:00,
2016-08-31 07:34:00,60.0,28.0,-100.00,SE,137,5.0,10.0,29,-99.99,,,-99.99,2.000000,,2016-08-31 14:34:00,
2016-08-31 10:25:00,65.0,29.0,-100.00,South,178,5.0,14.0,26,-99.99,,,-99.99,288.000000,,2016-08-31 17:25:00,
2016-08-31 10:37:00,65.0,29.0,-100.00,South,178,5.0,14.0,26,-99.99,,,-99.99,288.000000,,2016-08-31 17:37:00,
2016-08-31 11:27:00,67.0,30.0,-100.00,South,180,6.0,13.0,25,-99.99,,,-99.99,434.000000,,2016-08-31 18:27:00,
2016-08-31 12:24:00,67.0,29.0,-100.00,West,264,15.0,27.0,24,-99.99,,,-99.99,515.000000,,2016-08-31 19:24:00,
2016-08-31 12:35:00,67.0,29.0,-100.00,West,264,15.0,27.0,24,-99.99,,,-99.99,515.000000,,2016-08-31 19:35:00,
2016-08-31 13:24:00,69.0,30.0,-100.00,WSW,252,13.0,23.0,23,-99.99,,,-99.99,556.000000,,2016-08-31 20:24:00,
2016-08-31 13:34:00,69.0,30.0,-100.00,WSW,252,13.0,23.0,23,-99.99,,,-99.99,556.000000,,2016-08-31 20:34:00,
2016-08-31 14:23:00,70.0,32.0,-100.00,WSW,258,14.0,24.0,25,-99.99,,,-99.99,552.000000,,2016-08-31 21:23:00,
2016-08-31 14:34:00,70.0,32.0,-100.00,WSW,258,14.0,24.0,25,-99.99,,,-99.99,552.000000,,2016-08-31 21:34:00,
2016-08-31 15:24:00,70.0,34.0,-100.00,West,267,13.0,21.0,26,-99.99,,,-99.99,511.000000,,2016-08-31 22:24:00,
2016-08-31 15:40:00,69.0,30.0,-100.00,West,274,17.0,28.0,23,-99.99,,,-99.99,440.000000,,2016-08-31 22:40:00,
2016-08-31 16:27:00,69.0,30.0,-100.00,West,274,17.0,28.0,23,-99.99,,,-99.99,440.000000,,2016-08-31 23:27:00,
2016-08-31 16:37:00,69.0,30.0,-100.00,West,274,17.0,28.0,23,-99.99,,,-99.99,440.000000,,2016-08-31 23:37:00,
2016-08-31 17:40:00,67.0,33.0,-100.00,WSW,258,11.0,21.0,28,-99.99,,,-99.99,107.000000,,2016-09-01 00:40:00,
2016-08-31 18:24:00,67.0,33.0,-100.00,WSW,258,11.0,21.0,28,-99.99,,,-99.99,107.000000,,2016-09-01 01:24:00,
2016-08-31 18:34:00,67.0,33.0,-100.00,WSW,258,11.0,21.0,28,-99.99,,,-99.99,107.000000,,2016-09-01 01:34:00,
2016-08-31 18:40:00,66.0,33.0,-100.00,West,263,9.0,15.0,30,-99.99,,,-99.99,82.000000,,2016-09-01 01:40:00,
2016-08-31 19:23:00,66.0,33.0,-100.00,West,263,9.0,15.0,30,-99.99,,,-99.99,82.000000,,2016-09-01 02:23:00,
2016-08-31 19:34:00,66.0,33.0,-100.00,West,263,9.0,15.0,30,-99.99,,,-99.99,82.000000,,2016-09-01 02:34:00,
2016-08-31 19:40:00,61.0,35.0,-100.00,West,281,7.0,9.0,37,-99.99,,,-99.99,3.000000,,2016-09-01 02:40:00,
2016-08-31 20:23:00,61.0,35.0,-100.00,West,281,7.0,9.0,37,-99.99,,,-99.99,3.000000,,2016-09-01 03:23:00,
2016-08-31 20:40:00,59.0,35.0,-100.00,South,190,1.0,5.0,40,-99.99,,,-99.99,0.000000,,2016-09-01 03:40:00,
2016-08-31 21:24:00,59.0,35.0,-100.00,South,190,1.0,5.0,40,-99.99,,,-99.99,0.000000,,2016-09-01 04:24:00,